STARLINK-1777 1 47122U 20088A 21064.25001157 .00004762 00000-0 33840-3 0 9998 2 47122 53.0545 238.7851 0002324 111.5251 326.2397 15.06399561 16241 STARLINK-1779 1 47123U 20088B 21063.91668981 .00036383 00000-0 25591-2 0 9992 2 47123 53.0537 244.5860 0003502 51.1917 264.6220 15.04755278 1754 STARLINK-1785 1 47124U 20088C 21063.91668981 .00040590 00000-0 27304-2 0 9992 2 47124 53.0531 245.2597 0002562 96.6715 44.9741 15.06369241 1759 STARLINK-1787 1 47125U 20088D 21063.91668981 .00065432 00000-0 88328-3 0 9999 2 47125 53.0527 224.8437 0006427 324.5237 118.9355 15.57172944 1770 STARLINK-1812 1 47126U 20088E 21063.91668981 .00039538 00000-0 26602-2 0 9994 2 47126 53.0535 240.2689 0002241 107.7711 176.2131 15.06373651 1758 STARLINK-1836 1 47127U 20088F 21064.25001157 -.00541491 00000-0 -13253-1 0 9994 2 47127 53.0527 223.5007 0003696 274.1482 117.1658 15.42322311 16477 STARLINK-1837 1 47128U 20088G 21063.91668981 -.00420058 00000-0 -98908-2 0 9997 2 47128 53.0527 225.2127 0006065 272.5242 342.3566 15.42980421 1767 STARLINK-1838 1 47129U 20088H 21064.25001157 -.00920913 00000-0 -51392-1 0 9992 2 47129 53.0557 228.8110 0001300 76.9360 209.3557 15.15850618 16397 STARLINK-1839 1 47130U 20088J 21063.91668981 .00033298 00000-0 22446-2 0 9998 2 47130 53.0538 250.2843 0003295 99.3601 349.7206 15.06383978 1756 STARLINK-1840 1 47131U 20088K 21063.91668981 -.00507151 00000-0 -18702-1 0 9994 2 47131 53.0550 227.2256 0003917 271.7565 49.0136 15.29487508 1750 STARLINK-1842 1 47132U 20088L 21064.25001157 .00054333 00000-0 56592-3 0 9997 2 47132 53.0537 222.0492 0002736 92.1263 287.5549 15.64042023 16491 STARLINK-1843 1 47133U 20088M 21063.91668981 .00040713 00000-0 27388-2 0 9991 2 47133 53.0515 230.3005 0001407 88.4633 15.7704 15.06367028 1751 STARLINK-1844 1 47134U 20088N 21063.91668981 .00045126 00000-0 33786-2 0 9994 2 47134 53.0519 238.8201 0003162 350.2063 223.3549 15.02301911 1753 STARLINK-1845 1 47135U 20088P 21063.91668981 .00040630 00000-0 27340-2 0 9999 2 47135 53.0497 230.2991 0001179 82.7696 356.4128 15.06357534 1753 STARLINK-1846 1 47136U 20088Q 21063.91668981 .00042977 00000-0 28891-2 0 9998 2 47136 53.0540 240.2821 0002199 83.8662 0.2741 15.06367051 1754 STARLINK-1849 1 47137U 20088R 21063.91668981 .00044438 00000-0 29843-2 0 9991 2 47137 53.0525 230.2721 0001881 82.9646 96.0922 15.06388729 1754 STARLINK-1850 1 47138U 20088S 21063.91668981 .00039552 00000-0 26609-2 0 9990 2 47138 53.0579 235.2744 0001292 107.9634 248.6320 15.06377737 1759 STARLINK-1852 1 47139U 20088T 21063.91668981 .00038863 00000-0 27318-2 0 9993 2 47139 53.0398 244.9852 0002333 96.3883 108.9556 15.04750032 1750 STARLINK-1853 1 47140U 20088U 21064.25001157 .00005287 00000-0 39012-3 0 9998 2 47140 53.0539 238.0224 0001247 75.2759 192.0660 15.04760464 16269 STARLINK-1854 1 47141U 20088V 21063.91668981 .00043863 00000-0 29468-2 0 9990 2 47141 53.0593 230.2693 0001926 77.1166 207.1404 15.06381050 1755 STARLINK-1855 1 47142U 20088W 21063.91668981 .00032550 00000-0 21949-2 0 9998 2 47142 53.0536 250.2802 0003007 96.8387 52.2051 15.06383231 1752 STARLINK-1856 1 47143U 20088X 21063.91668981 .00039590 00000-0 26645-2 0 9998 2 47143 53.0478 230.3303 0001522 83.9781 335.1326 15.06363168 1753 STARLINK-1857 1 47144U 20088Y 21063.91668981 -.00429392 00000-0 -10168-1 0 9996 2 47144 53.0540 225.1347 0001237 74.0130 174.5435 15.42884896 1769 STARLINK-1858 1 47145U 20088Z 21063.91668981 -.00427021 00000-0 -10044-1 0 9997 2 47145 53.0539 225.1895 0005910 271.2042 356.4884 15.43040259 1768 STARLINK-1859 1 47146U 20088AA 21063.91668981 .00034907 00000-0 23522-2 0 9999 2 47146 53.0471 250.2980 0003060 95.2404 278.9313 15.06374757 1765 STARLINK-1860 1 47147U 20088AB 21064.25001157 .00004305 00000-0 30779-3 0 9996 2 47147 53.0549 238.7563 0002113 115.9833 256.6778 15.06393344 16200 STARLINK-1861 1 47148U 20088AC 21063.91668981 .00042966 00000-0 28872-2 0 9998 2 47148 53.0500 230.2964 0001367 83.8302 55.3058 15.06382163 1750 STARLINK-1862 1 47149U 20088AD 21063.91668981 .00037942 00000-0 25531-2 0 9996 2 47149 53.0542 240.2646 0002513 66.6623 277.4605 15.06389202 1750 STARLINK-1863 1 47150U 20088AE 21064.25001157 .00122236 00000-0 81035-2 0 9994 2 47150 53.0719 228.6695 0001329 81.0629 306.6853 15.06311523 16345 STARLINK-1864 1 47151U 20088AF 21064.25001157 .00004327 00000-0 30927-3 0 9990 2 47151 53.0427 238.8313 0002291 106.4335 286.1775 15.06395665 16194 STARLINK-1866 1 47152U 20088AG 21064.25001157 .00004514 00000-0 32174-3 0 9995 2 47152 53.0552 238.7855 0002091 89.1819 23.5369 15.06402269 16197 STARLINK-1867 1 47153U 20088AH 21064.25001157 -.00004488 00000-0 -28260-3 0 9999 2 47153 53.0541 243.7641 0002433 107.9171 142.4431 15.06391521 16138 STARLINK-1868 1 47154U 20088AJ 21064.25001157 .00020202 00000-0 13717-2 0 9990 2 47154 53.0562 228.7697 0001446 74.9387 192.8057 15.06388449 16342 STARLINK-1869 1 47155U 20088AK 21063.91668981 .00033719 00000-0 22738-2 0 9997 2 47155 53.0532 250.2852 0002623 101.6919 327.4172 15.06366033 1758 STARLINK-1870 1 47156U 20088AL 21064.25001157 -.00541799 00000-0 -13250-1 0 9994 2 47156 53.0529 223.4887 0002178 276.4023 116.5254 15.42358607 16412 STARLINK-1871 1 47157U 20088AM 21063.91668981 .00043490 00000-0 29235-2 0 9995 2 47157 53.0550 240.2735 0002047 86.1944 137.9054 15.06362925 1753 STARLINK-1873 1 47158U 20088AN 21064.25001157 .00018486 00000-0 12569-2 0 9999 2 47158 53.0390 228.8730 0001375 92.2042 15.5019 15.06393057 16335 STARLINK-1874 1 47159U 20088AP 21063.91668981 .00045133 00000-0 30315-2 0 9994 2 47159 53.0549 240.2822 0002198 98.9208 25.0780 15.06375513 1751 STARLINK-1875 1 47160U 20088AQ 21063.91668981 .00044859 00000-0 30126-2 0 9990 2 47160 53.0557 230.2691 0001454 72.9189 166.2293 15.06384383 1751 STARLINK-1876 1 47161U 20088AR 21064.25001157 .00021314 00000-0 14456-2 0 9994 2 47161 53.0591 228.7713 0001538 80.2717 207.3511 15.06395966 16349 STARLINK-1877 1 47162U 20088AS 21063.91668981 .00038380 00000-0 25823-2 0 9992 2 47162 53.0528 240.2670 0002192 97.6246 206.5075 15.06387503 1750 STARLINK-1878 1 47163U 20088AT 21063.91668981 .00032964 00000-0 22227-2 0 9990 2 47163 53.0551 250.2810 0002877 98.0570 96.0149 15.06379256 1759 STARLINK-1879 1 47164U 20088AU 21063.91668981 -.00435230 00000-0 -10219-1 0 9993 2 47164 53.0524 225.0795 0001183 74.5084 198.4285 15.43159071 1761 STARLINK-1880 1 47165U 20088AV 21064.25001157 .00005161 00000-0 36535-3 0 9993 2 47165 53.0542 238.7723 0002013 94.3232 78.4421 15.06379388 16200 STARLINK-1881 1 47166U 20088AW 21063.91668981 .00040145 00000-0 15852-2 0 9999 2 47166 53.0470 238.4814 0001975 78.0787 262.5113 15.25157027 1752 STARLINK-1884 1 47167U 20088AX 21063.91668981 .00042095 00000-0 28279-2 0 9993 2 47167 53.0552 240.2752 0008515 347.7418 256.2960 15.06377764 1751 STARLINK-1885 1 47168U 20088AY 21063.91668981 .00041295 00000-0 27763-2 0 9992 2 47168 53.0541 240.2717 0002161 85.3156 178.7852 15.06381805 1755 STARLINK-1886 1 47169U 20088AZ 21064.25001157 -.00933958 00000-0 -28166-1 0 9992 2 47169 53.0560 225.2439 0001217 76.6257 214.9707 15.36557348 16441 STARLINK-1887 1 47170U 20088BA 21063.91668981 .00038107 00000-0 25656-2 0 9992 2 47170 53.0541 240.2651 0002108 98.4439 225.6605 15.06367202 1758 STARLINK-1888 1 47171U 20088BB 21063.91668981 .00044398 00000-0 29827-2 0 9996 2 47171 53.0524 230.2660 0001322 72.1394 146.9640 15.06376208 1755 STARLINK-1889 1 47172U 20088BC 21063.91668981 .00038336 00000-0 27551-2 0 9994 2 47172 53.0596 244.9668 0002307 98.8306 278.8281 15.03925147 1752 STARLINK-1890 1 47173U 20088BD 21063.91668981 .00042336 00000-0 28450-2 0 9999 2 47173 53.0546 240.2731 0002297 98.6902 150.5576 15.06387205 1759 STARLINK-1891 1 47174U 20088BE 21063.91668981 .00045003 00000-0 30227-2 0 9999 2 47174 53.0547 240.2754 0001890 94.2757 109.8453 15.06377623 1758 STARLINK-1895 1 47175U 20088BF 21063.91668981 -.00477893 00000-0 -11232-1 0 9992 2 47175 53.0512 225.0744 0001214 78.8643 200.1654 15.43293377 1766 STARLINK-1900 1 47176U 20088BG 21063.91668981 .01112326 00000-0 95795-2 0 9996 2 47176 53.0526 223.7565 0001085 71.5663 192.2661 15.66256807 1778 STARLINK-1907 1 47177U 20088BH 21063.91668981 .00043311 00000-0 29100-2 0 9990 2 47177 53.0594 230.2697 0001644 66.5677 232.5433 15.06384180 1756 STARLINK-1912 1 47178U 20088BJ 21063.91668981 .00029309 00000-0 19787-2 0 9992 2 47178 53.0466 240.3057 0002202 90.2344 313.9039 15.06393112 1754 STARLINK-1913 1 47179U 20088BK 21064.25001157 -.00010420 00000-0 -68188-3 0 9993 2 47179 53.0534 248.7862 0002812 102.1392 15.5963 15.06384624 16058 STARLINK-1914 1 47180U 20088BL 21063.91668981 .00032691 00000-0 22050-2 0 9990 2 47180 53.0556 250.2828 0002942 101.6977 27.4087 15.06371913 1758 STARLINK-1927 1 47181U 20088BM 21063.91668981 -.00441482 00000-0 -10255-1 0 9998 2 47181 53.0516 225.0988 0001173 76.7976 211.7917 15.43500214 1768